Regional Weather Roundup
Issued by NWS

Home | Current Version | Previous Version | Graphics & Text | Print | Product List | Glossary On
Versions: 1 2 3 4 5 6 7 8 9 10 11 12 13 14 15 16 17 18 19 20 21 22 23 24 25 26 27 28 29
000
ASUS45 KGTF 171610
RWRMT
MONTANA HOURLY WEATHER ROUNDUP
NATIONAL WEATHER SERVICE GREAT FALLS MT
1000 AM MDT FRI APR 17 2015

NOTE: "FAIR" INDICATES FEW OR NO CLOUDS BELOW 12000 FEET WITH NO
SIGNIFICANT WEATHER AND/OR OBSTRUCTIONS TO VISIBILITY.

MTZ001>007-043-171700-
WEST OF THE DIVIDE

CITY           SKY/WX    TMP DP  RH WIND       PRES   REMARKS
KALISPELL      SUNNY     47  34  60 E5        30.22F
MISSOULA       SUNNY     43  30  60 CALM      30.26F
BUTTE          SUNNY     39  25  57 CALM      30.25F
DEER LODGE       N/A     45  27  49 CALM      30.29F
EUREKA           N/A     46  32  57 CALM      30.22
HAMILTON         N/A     48  28  46 S5        30.24F
LIBBY            N/A     45  30  57 CALM      30.22F
$$

MTZ008-052>055-171700-
SOUTHWEST MONTANA

CITY           SKY/WX    TMP DP  RH WIND       PRES   REMARKS
BOZEMAN        SUNNY     43  29  57 CALM      30.26F
DILLON         SUNNY     41  26  55 SW6       30.25S
$$

MTZ009-010-012-014-046-048-049-054-171700-
EAST SLOPES AND CENTRAL MONTANA

CITY           SKY/WX    TMP DP  RH WIND       PRES   REMARKS
CUT BANK       SUNNY     49  29  46 NE3       30.20S
GREAT FALLS    SUNNY     51  28  41 W7        30.20F
MALMSTROM AFB  SUNNY     50  29  44 W7        30.21F
HELENA         SUNNY     44  27  51 E5        30.25F
$$

MTZ011-013-016-021-045-047-050-051-171700-
NORTH CENTRAL MONTANA

CITY           SKY/WX    TMP DP  RH WIND       PRES   REMARKS
HAVRE          SUNNY     54  30  40 E16       30.18F
LEWISTOWN      SUNNY     54  29  38 W5        30.20F
FORT BENTON      N/A     52  28  40 SW6       30.20F
$$

MTZ017>020-022>042-056>058-061-062-171700-
EASTERN PLAINS

CITY           SKY/WX    TMP DP  RH WIND       PRES   REMARKS
BAKER          SUNNY     57  30  35 NE5       30.22S
BILLINGS       SUNNY     49  33  54 SW12      30.20F
GLASGOW        SUNNY     55  27  34 CALM      30.19S
JORDAN           N/A     56  29  35 W8        30.18F
LIVINGSTON     SUNNY     48  29  47 NW6       30.23F
MILES CITY     SUNNY     53  29  39 NW3       30.20F
SIDNEY         SUNNY     55  30  38 S9        30.20S
WOLF POINT     SUNNY     56  31  38 SW7       30.19F
BIG TIMBER       N/A     48  28  46 SW8       30.23S
FORSYTH          N/A     52  32  46 W7        30.20F
PLENTYWOOD       N/A     59  27  29 N10       30.18R
POPLAR           N/A     54  28  37 SW5       30.20F
$$

REGIONAL REPORTS...DAKOTAS

CITY           SKY/WX    TMP DP  RH WIND       PRES   REMARKS
WILLISTON      SUNNY     59  29  31 SW10      30.17F
MINOT          SUNNY     64  24  21 W14       30.11F
DICKINSON      SUNNY     61  24  24 W10       30.17F
BEACH          FAIR      57  27  30 W13       30.21S
CROSBY         FAIR      57  28  33 N9        30.17S
WATFORD CITY   FAIR      59  27  29 W12       30.17S
BISMARCK       SUNNY     60  25  26 W5        30.19F
GRAND FORKS    SUNNY     66  24  20 W15G23    30.09F
FARGO          SUNNY     63  25  23 SW10      30.14F
BUFFALO SD       N/A     57  25  29 NE5       30.16S
RAPID CITY     CLOUDY    51  30  44 N10       30.21S
$$

REGIONAL REPORTS...WYOMING/IDAHO/WASHINGTON

CITY           SKY/WX    TMP DP  RH WIND       PRES   REMARKS
GILLETTE       SUNNY     50  31  48 N9        30.21S
SHERIDAN       SUNNY     47  33  58 CALM      30.22F
BUFFALO WY       N/A     51  29  42 N6        30.22S
CODY           SUNNY     45  28  53 N5        30.21S
YELLOWSTONE LA   N/A     32  21  64 VRB3      30.25F
IDAHO FALLS    SUNNY     47  31  53 VRB3      30.20F
SALMON         SUNNY     41  27  56 CALM      30.26F
BOISE          SUNNY     54  31  41 SE8       30.19F
SPOKANE        MOSUNNY   49  36  61 NE3       30.21F
$$

REGIONAL REPORTS...ALBERTA

CITY           SKY/WX    TMP DP  RH WIND       PRES   REMARKS
CALGARY        MOSUNNY   50  23  34 S25G36    30.10F
MEDICINE HAT   MOSUNNY   57  28  33 E8        30.17F
$$

REGIONAL REPORTS...SASKATCHEWAN

CITY           SKY/WX    TMP DP  RH WIND       PRES   REMARKS
SASKATOON      MOSUNNY   50  27  40 N7        30.21F
$$



USA.gov is the U.S. government's official web portal to all federal, state and local government web resources and services.